SOMP (39134 NORAD) Tracking and Keplerian Element Data

This shows tracking and keplerian element data for the satellite.

Feedback or suggestion? Click here.




ElementValue
Catalog39134
NameSOMP
Epoch Orbit57449
Epoch Day238.79660919
Epoch Year2023
RAAN36.1965
Inclination64.8322
Eccentricity0.0021604
Argument of Perigee274.1878
Mean Anonmoly85.6821
Mean Motion16.02984789
Decay Rate0.0114369
L11 39134U 13015E 23238.79660919 .01143690 71120-3 18308-2 0 9995
L22 39134 64.8322 36.1965 0021604 274.1878 85.6821 16.02984789574490



Live tracking and technical data element details for SOMP (NORAD 39134). SOMP can be tracked NOW for your location showing map with azimuth and elevation plus other details from your city location.







IsCatalogInMostPopularTable: catalog: 39134, numindb: 469
Update: records affected: 1



GetName: 39134 SOMP

Hit Count: updated at: Thu, 23 Jan 2025 18:06:36 GMT